Location: Melara
(45.0500°N, 11.1833°E)
Time: 22:38:51
(UTC+00:00)

Cosmos 2278 Rocket - Pass Details

Date: 26 May 2022
Orbit: 840 x 846 km, 71.0° (Epoch: 02 July)

Event Time Altitude Azimuth Distance (km) Brightness Sun altitude
Rises 01:38:16 0° 317° (NW) 3,414 5.5 -16.0°
Reaches altitude 10° 01:41:52 10° 294° (WNW) 2,472 4.5 -15.6°
Maximum altitude 01:44:47 14° 263° (W) 2,168 3.9 -15.3°
Enters shadow 01:45:17 14° 257° (WSW) 2,176 3.9 -15.2°
